TimeEDT,TemperatureF,Dew PointF,Humidity,Sea Level PressureIn,VisibilityMPH,Wind Direction,Wind SpeedMPH,Gust SpeedMPH,PrecipitationIn,Events,Conditions,WindDirDegrees,DateUTC
12:15 AM,55.4,46.4,72,30.27,10.0,NNE,8.1,-,N/A,,Clear,20,2013-10-09 04:15:00
12:35 AM,55.4,46.4,72,30.27,10.0,NNE,10.4,-,N/A,,Clear,20,2013-10-09 04:35:00
12:55 AM,55.4,46.4,72,30.27,10.0,NNE,9.2,-,N/A,,Clear,20,2013-10-09 04:55:00
1:15 AM,55.4,46.4,72,30.27,10.0,NNE,8.1,-,N/A,,Clear,20,2013-10-09 05:15:00
1:35 AM,55.4,46.4,72,30.27,10.0,NNE,8.1,-,N/A,,Clear,20,2013-10-09 05:35:00
1:55 AM,55.4,46.4,72,30.26,10.0,NNE,10.4,-,N/A,,Clear,20,2013-10-09 05:55:00
2:15 AM,55.4,46.4,72,30.26,10.0,NNE,10.4,-,N/A,,Clear,20,2013-10-09 06:15:00
2:35 AM,55.4,46.4,72,30.25,10.0,NNE,9.2,-,N/A,,Clear,20,2013-10-09 06:35:00
2:55 AM,55.4,46.4,72,30.25,10.0,NNE,8.1,-,N/A,,Clear,20,2013-10-09 06:55:00
3:15 AM,55.4,46.4,72,30.24,10.0,North,9.2,-,N/A,,Clear,10,2013-10-09 07:15:00
3:35 AM,55.4,46.4,72,30.24,10.0,NNE,6.9,-,N/A,,Clear,20,2013-10-09 07:35:00
3:55 AM,55.4,46.4,72,30.25,10.0,NNE,8.1,-,N/A,,Clear,20,2013-10-09 07:55:00
4:15 AM,55.4,46.4,72,30.25,10.0,North,8.1,-,N/A,,Partly Cloudy,10,2013-10-09 08:15:00
4:35 AM,55.4,46.4,72,30.24,10.0,NNE,9.2,-,N/A,,Scattered Clouds,30,2013-10-09 08:35:00
4:55 AM,60.8,48.2,63,30.24,10.0,ENE,15.0,24.2,N/A,,Scattered Clouds,60,2013-10-09 08:55:00
5:15 AM,60.8,48.2,63,30.25,10.0,ENE,15.0,21.9,N/A,,Partly Cloudy,60,2013-10-09 09:15:00
5:35 AM,62.6,48.2,59,30.25,10.0,ENE,16.1,25.3,N/A,,Partly Cloudy,60,2013-10-09 09:35:00
5:55 AM,62.6,48.2,59,30.25,10.0,ENE,13.8,24.2,N/A,,Mostly Cloudy,60,2013-10-09 09:55:00
6:15 AM,62.6,48.2,59,30.24,10.0,ENE,16.1,25.3,N/A,,Scattered Clouds,60,2013-10-09 10:15:00
6:35 AM,60.8,48.2,63,30.25,10.0,NE,16.1,20.7,N/A,,Clear,50,2013-10-09 10:35:00
6:55 AM,60.8,48.2,63,30.26,10.0,NE,15.0,24.2,N/A,,Clear,50,2013-10-09 10:55:00
7:15 AM,60.8,48.2,63,30.25,10.0,NE,17.3,20.7,N/A,,Clear,50,2013-10-09 11:15:00
7:35 AM,60.8,48.2,63,30.25,10.0,NE,15.0,21.9,N/A,,Partly Cloudy,50,2013-10-09 11:35:00
7:55 AM,62.6,48.2,59,30.26,10.0,NE,15.0,23.0,N/A,,Scattered Clouds,40,2013-10-09 11:55:00
8:15 AM,62.6,48.2,59,30.27,10.0,NE,12.7,25.3,N/A,,Scattered Clouds,50,2013-10-09 12:15:00
8:35 AM,62.6,48.2,59,30.28,10.0,NE,13.8,26.5,N/A,,Mostly Cloudy,50,2013-10-09 12:35:00
8:55 AM,62.6,48.2,59,30.28,10.0,ENE,17.3,24.2,N/A,,Mostly Cloudy,60,2013-10-09 12:55:00
9:15 AM,62.6,50.0,63,30.29,10.0,NE,16.1,25.3,N/A,,Overcast,50,2013-10-09 13:15:00
9:35 AM,62.6,50.0,63,30.29,10.0,ENE,16.1,23.0,N/A,,Mostly Cloudy,60,2013-10-09 13:35:00
9:55 AM,62.6,50.0,63,30.29,10.0,NE,17.3,26.5,N/A,,Mostly Cloudy,50,2013-10-09 13:55:00
10:15 AM,62.6,51.8,68,30.29,10.0,NE,15.0,26.5,N/A,,Mostly Cloudy,50,2013-10-09 14:15:00
10:35 AM,62.6,51.8,68,30.29,10.0,NE,15.0,24.2,N/A,,Overcast,50,2013-10-09 14:35:00
10:55 AM,62.6,51.8,68,30.28,10.0,NE,16.1,26.5,N/A,,Overcast,50,2013-10-09 14:55:00
11:15 AM,62.6,51.8,68,30.28,10.0,NE,15.0,20.7,N/A,,Overcast,40,2013-10-09 15:15:00
11:35 AM,62.6,50.0,63,30.28,10.0,NE,16.1,27.6,N/A,,Overcast,50,2013-10-09 15:35:00
11:55 AM,62.6,50.0,63,30.28,10.0,NE,18.4,27.6,N/A,,Overcast,50,2013-10-09 15:55:00
12:15 PM,62.6,50.0,63,30.28,10.0,NE,17.3,27.6,N/A,,Overcast,50,2013-10-09 16:15:00
12:35 PM,62.6,50.0,63,30.28,10.0,ENE,18.4,33.4,N/A,,Overcast,60,2013-10-09 16:35:00
12:55 PM,62.6,50.0,63,30.28,10.0,ENE,19.6,31.1,N/A,,Overcast,60,2013-10-09 16:55:00
1:15 PM,62.6,51.8,68,30.27,10.0,NE,17.3,26.5,N/A,,Overcast,50,2013-10-09 17:15:00
1:35 PM,62.6,51.8,68,30.26,10.0,NE,19.6,26.5,N/A,,Overcast,50,2013-10-09 17:35:00
1:55 PM,62.6,51.8,68,30.26,10.0,NE,20.7,29.9,N/A,,Overcast,50,2013-10-09 17:55:00
2:15 PM,62.6,51.8,68,30.26,10.0,NE,17.3,29.9,N/A,,Overcast,50,2013-10-09 18:15:00
2:35 PM,62.6,50.0,63,30.26,10.0,NE,18.4,26.5,N/A,,Overcast,40,2013-10-09 18:35:00
2:55 PM,62.6,50.0,63,30.25,10.0,NE,21.9,28.8,N/A,,Overcast,40,2013-10-09 18:55:00
3:15 PM,62.6,50.0,63,30.25,10.0,NE,20.7,29.9,N/A,,Overcast,50,2013-10-09 19:15:00
3:35 PM,62.6,50.0,63,30.25,10.0,NE,18.4,27.6,N/A,,Overcast,40,2013-10-09 19:35:00
3:55 PM,60.8,51.8,72,30.24,10.0,NE,17.3,28.8,N/A,,Overcast,40,2013-10-09 19:55:00
4:15 PM,60.8,51.8,72,30.23,10.0,NNE,21.9,28.8,N/A,,Overcast,30,2013-10-09 20:15:00
4:35 PM,60.8,50.0,68,30.23,10.0,NE,20.7,31.1,N/A,,Overcast,40,2013-10-09 20:35:00
4:55 PM,60.8,51.8,72,30.25,10.0,NE,15.0,27.6,N/A,,Overcast,50,2013-10-09 20:55:00
5:15 PM,60.8,51.8,72,30.25,10.0,NE,13.8,23.0,N/A,,Overcast,50,2013-10-09 21:15:00
5:35 PM,59.0,51.8,77,30.23,9.0,NE,19.6,28.8,0.01,,Overcast,40,2013-10-09 21:35:00
5:55 PM,59.0,51.8,77,30.22,9.0,NE,18.4,27.6,0.01,,Overcast,40,2013-10-09 21:55:00
6:15 PM,59.0,51.8,77,30.23,9.0,NE,19.6,26.5,0.01,,Overcast,40,2013-10-09 22:15:00
6:35 PM,57.2,51.8,82,30.22,9.0,NE,17.3,27.6,0.02,,Overcast,40,2013-10-09 22:35:00
6:55 PM,59.0,51.8,77,30.22,10.0,NE,16.1,25.3,0.02,,Overcast,40,2013-10-09 22:55:00
7:15 PM,57.2,51.8,82,30.22,9.0,NE,18.4,25.3,N/A,,Mostly Cloudy,50,2013-10-09 23:15:00
7:35 PM,57.2,51.8,82,30.21,8.0,NE,18.4,24.2,0.01,,Overcast,50,2013-10-09 23:35:00
7:55 PM,57.2,51.8,82,30.21,9.0,NE,19.6,31.1,0.01,,Overcast,50,2013-10-09 23:55:00
8:15 PM,59.0,51.8,77,30.21,10.0,NE,19.6,28.8,N/A,,Overcast,50,2013-10-10 00:15:00
8:35 PM,59.0,51.8,77,30.21,7.0,NE,16.1,24.2,N/A,,Mostly Cloudy,50,2013-10-10 00:35:00
8:55 PM,57.2,53.6,88,30.21,6.0,NE,16.1,24.2,0.03,,Mostly Cloudy,50,2013-10-10 00:55:00
9:15 PM,57.2,53.6,88,30.20,9.0,NE,20.7,28.8,N/A,,Overcast,40,2013-10-10 01:15:00
9:35 PM,57.2,53.6,88,30.20,10.0,NE,17.3,27.6,N/A,,Overcast,50,2013-10-10 01:35:00
9:55 PM,59.0,53.6,82,30.20,10.0,NE,17.3,26.5,0.01,,Overcast,40,2013-10-10 01:55:00
10:15 PM,59.0,53.6,82,30.20,10.0,NNE,17.3,28.8,N/A,,Mostly Cloudy,30,2013-10-10 02:15:00
10:35 PM,57.2,53.6,88,30.20,10.0,NE,13.8,-,N/A,,Overcast,40,2013-10-10 02:35:00
10:55 PM,57.2,53.6,88,30.20,10.0,NE,13.8,18.4,N/A,,Overcast,40,2013-10-10 02:55:00
11:15 PM,57.2,53.6,88,30.20,10.0,NNE,16.1,20.7,0.01,,Overcast,30,2013-10-10 03:15:00
11:35 PM,57.2,53.6,88,30.19,7.0,NE,15.0,20.7,0.01,,Overcast,40,2013-10-10 03:35:00
11:55 PM,57.2,53.6,88,30.18,7.0,NE,15.0,23.0,0.05,,Overcast,40,2013-10-10 03:55:00